Time,TemperatureF,DewpointF,PressureIn,WindDirection,WindDirectionDegrees,WindSpeedMPH,WindSpeedGustMPH,Humidity,HourlyPrecipIn,Conditions,Clouds,dailyrainin,SoftwareType,DateUTC
2013-10-12 00:02:00,52.0,46.0,30.13,NE,37,0.0,1.0,79,0.00,,,0.00,weatherlink.com 1.10,2013-10-12 04:02:00,
2013-10-12 00:17:00,52.1,45.0,30.13,NE,37,0.0,1.0,76,0.00,,,0.00,weatherlink.com 1.10,2013-10-12 04:17:00,
2013-10-12 00:32:00,51.5,44.0,30.13,NE,37,0.0,1.0,76,0.00,,,0.00,weatherlink.com 1.10,2013-10-12 04:32:00,
2013-10-12 00:47:00,51.3,44.0,30.13,NE,37,0.0,0.0,76,0.00,,,0.00,weatherlink.com 1.10,2013-10-12 04:47:00,
2013-10-12 01:02:00,50.2,44.0,30.13,NE,37,0.0,0.0,78,0.00,,,0.00,weatherlink.com 1.10,2013-10-12 05:02:00,
2013-10-12 01:17:00,50.6,44.0,30.13,NE,37,0.0,0.0,77,0.00,,,0.00,weatherlink.com 1.10,2013-10-12 05:17:00,
2013-10-12 01:32:00,50.1,44.0,30.13,East,94,0.0,0.0,79,0.00,,,0.00,weatherlink.com 1.10,2013-10-12 05:32:00,
2013-10-12 01:47:00,49.2,43.0,30.13,East,94,0.0,0.0,80,0.00,,,0.00,weatherlink.com 1.10,2013-10-12 05:47:00,
2013-10-12 02:02:00,48.6,44.0,30.13,East,94,0.0,0.0,83,0.00,,,0.00,weatherlink.com 1.10,2013-10-12 06:02:00,
2013-10-12 02:17:00,49.0,44.0,30.13,ENE,65,0.0,0.0,83,0.00,,,0.00,weatherlink.com 1.10,2013-10-12 06:17:00,
2013-10-12 02:32:00,48.3,44.0,30.12,ENE,65,0.0,0.0,84,0.00,,,0.00,weatherlink.com 1.10,2013-10-12 06:32:00,
2013-10-12 02:47:00,48.1,44.0,30.12,ENE,65,0.0,0.0,84,0.00,,,0.00,weatherlink.com 1.10,2013-10-12 06:47:00,
2013-10-12 03:02:00,47.2,43.0,30.13,ENE,65,0.0,0.0,84,0.00,,,0.00,weatherlink.com 1.10,2013-10-12 07:02:00,
2013-10-12 03:17:00,46.2,42.0,30.13,ENE,65,0.0,0.0,85,0.00,,,0.00,weatherlink.com 1.10,2013-10-12 07:17:00,
2013-10-12 03:33:00,45.9,42.0,30.13,NNE,25,0.0,0.0,86,0.00,,,0.00,weatherlink.com 1.10,2013-10-12 07:33:00,
2013-10-12 03:48:00,45.9,42.0,30.13,NNE,25,0.0,0.0,87,0.00,,,0.00,weatherlink.com 1.10,2013-10-12 07:48:00,
2013-10-12 04:03:00,45.9,43.0,30.14,NNE,25,0.0,0.0,88,0.00,,,0.00,weatherlink.com 1.10,2013-10-12 08:03:00,
2013-10-12 04:18:00,45.4,42.0,30.14,NNE,25,0.0,0.0,88,0.00,,,0.00,weatherlink.com 1.10,2013-10-12 08:18:00,
2013-10-12 04:33:00,46.1,43.0,30.14,NNE,25,0.0,0.0,89,0.00,,,0.00,weatherlink.com 1.10,2013-10-12 08:33:00,
2013-10-12 04:48:00,45.1,42.0,30.14,NNE,25,0.0,0.0,88,0.00,,,0.00,weatherlink.com 1.10,2013-10-12 08:48:00,
2013-10-12 05:03:00,46.2,43.0,30.14,ENE,58,0.0,0.0,89,0.00,,,0.00,weatherlink.com 1.10,2013-10-12 09:03:00,
2013-10-12 05:18:00,46.6,44.0,30.14,ENE,58,0.0,0.0,89,0.00,,,0.00,weatherlink.com 1.10,2013-10-12 09:18:00,
2013-10-12 05:33:00,46.3,43.0,30.14,ENE,58,0.0,0.0,89,0.00,,,0.00,weatherlink.com 1.10,2013-10-12 09:33:00,
2013-10-12 05:48:00,46.1,43.0,30.15,ENE,58,0.0,0.0,89,0.00,,,0.00,weatherlink.com 1.10,2013-10-12 09:48:00,
2013-10-12 06:03:00,45.8,43.0,30.15,ENE,58,0.0,0.0,89,0.00,,,0.00,weatherlink.com 1.10,2013-10-12 10:03:00,
2013-10-12 06:18:00,46.3,43.0,30.15,ENE,72,0.0,0.0,89,0.00,,,0.00,weatherlink.com 1.10,2013-10-12 10:18:00,
2013-10-12 06:33:00,46.4,43.0,30.15,ENE,72,0.0,0.0,89,0.00,,,0.00,weatherlink.com 1.10,2013-10-12 10:33:00,
2013-10-12 06:48:00,46.3,43.0,30.16,ENE,72,0.0,0.0,89,0.00,,,0.00,weatherlink.com 1.10,2013-10-12 10:48:00,
2013-10-12 07:03:00,46.3,43.0,30.16,ENE,72,0.0,0.0,89,0.00,,,0.00,weatherlink.com 1.10,2013-10-12 11:03:00,
2013-10-12 07:18:00,46.4,43.0,30.16,ENE,72,0.0,0.0,89,0.00,,,0.00,weatherlink.com 1.10,2013-10-12 11:18:00,
2013-10-12 07:33:00,45.7,43.0,30.16,ENE,72,0.0,0.0,89,0.00,,,0.00,weatherlink.com 1.10,2013-10-12 11:33:00,
2013-10-12 07:48:00,47.4,44.0,30.17,East,88,0.0,0.0,89,0.00,,,0.00,weatherlink.com 1.10,2013-10-12 11:48:00,
2013-10-12 08:03:00,48.8,46.0,30.17,East,98,1.0,2.0,89,0.00,,,0.00,weatherlink.com 1.10,2013-10-12 12:03:00,
2013-10-12 08:18:00,50.3,47.0,30.17,East,100,0.0,0.0,87,0.00,,,0.00,weatherlink.com 1.10,2013-10-12 12:18:00,
2013-10-12 08:39:00,52.9,47.0,30.17,East,84,0.0,0.0,80,0.00,,,0.00,weatherlink.com 1.10,2013-10-12 12:39:00,
2013-10-12 08:52:00,55.3,48.0,30.17,East,83,0.0,0.0,77,0.00,,,0.00,weatherlink.com 1.10,2013-10-12 12:52:00,
2013-10-12 09:04:00,57.2,48.0,30.17,ESE,107,0.0,0.0,72,0.00,,,0.00,weatherlink.com 1.10,2013-10-12 13:04:00,
2013-10-12 09:19:00,58.5,49.0,30.17,East,94,3.0,3.0,70,0.00,,,0.00,weatherlink.com 1.10,2013-10-12 13:19:00,
2013-10-12 09:34:00,59.7,50.0,30.17,SE,124,0.0,2.0,70,0.00,,,0.00,weatherlink.com 1.10,2013-10-12 13:34:00,
2013-10-12 09:49:00,62.2,50.0,30.17,East,84,1.0,1.0,64,0.00,,,0.00,weatherlink.com 1.10,2013-10-12 13:49:00,
2013-10-12 10:04:00,64.1,49.0,30.17,East,81,2.0,2.0,59,0.00,,,0.00,weatherlink.com 1.10,2013-10-12 14:04:00,
2013-10-12 10:19:00,64.7,50.0,30.16,East,101,3.0,3.0,59,0.00,,,0.00,weatherlink.com 1.10,2013-10-12 14:19:00,
2013-10-12 10:34:00,66.6,52.0,30.16,ENE,57,0.0,2.0,60,0.00,,,0.00,weatherlink.com 1.10,2013-10-12 14:34:00,
2013-10-12 10:49:00,68.2,51.0,30.16,East,100,1.0,1.0,55,0.00,,,0.00,weatherlink.com 1.10,2013-10-12 14:49:00,
2013-10-12 11:04:00,69.8,53.0,30.16,ESE,118,0.0,2.0,55,0.00,,,0.00,weatherlink.com 1.10,2013-10-12 15:04:00,
2013-10-12 11:19:00,71.6,52.0,30.16,East,97,0.0,1.0,50,0.00,,,0.00,weatherlink.com 1.10,2013-10-12 15:19:00,
2013-10-12 11:34:00,72.1,53.0,30.15,NNW,342,1.0,2.0,51,0.00,,,0.00,weatherlink.com 1.10,2013-10-12 15:34:00,
2013-10-12 11:49:00,72.7,53.0,30.15,South,172,0.0,0.0,51,0.00,,,0.00,weatherlink.com 1.10,2013-10-12 15:49:00,
2013-10-12 12:04:00,73.5,52.0,30.15,NW,322,1.0,4.0,48,0.00,,,0.00,weatherlink.com 1.10,2013-10-12 16:04:00,
2013-10-12 12:19:00,73.2,52.0,30.15,NNW,342,3.0,4.0,47,0.00,,,0.00,weatherlink.com 1.10,2013-10-12 16:19:00,
2013-10-12 12:34:00,73.8,50.0,30.15,ESE,105,4.0,5.0,43,0.00,,,0.00,weatherlink.com 1.10,2013-10-12 16:34:00,
2013-10-12 12:49:00,74.7,52.0,30.14,East,98,1.0,3.0,45,0.00,,,0.00,weatherlink.com 1.10,2013-10-12 16:49:00,
2013-10-12 13:04:00,74.1,51.0,30.14,NNE,20,3.0,6.0,44,0.00,,,0.00,weatherlink.com 1.10,2013-10-12 17:04:00,
2013-10-12 13:20:00,74.7,49.0,30.13,East,86,2.0,5.0,41,0.00,,,0.00,weatherlink.com 1.10,2013-10-12 17:20:00,
2013-10-12 13:35:00,75.5,50.0,30.13,ENE,65,1.0,5.0,41,0.00,,,0.00,weatherlink.com 1.10,2013-10-12 17:35:00,
2013-10-12 13:50:00,75.6,50.0,30.12,East,81,1.0,7.0,40,0.00,,,0.00,weatherlink.com 1.10,2013-10-12 17:50:00,
2013-10-12 14:05:00,75.7,48.0,30.12,East,81,4.0,8.0,38,0.00,,,0.00,weatherlink.com 1.10,2013-10-12 18:05:00,
2013-10-12 14:20:00,76.3,48.0,30.12,NE,37,4.0,6.0,37,0.00,,,0.00,weatherlink.com 1.10,2013-10-12 18:20:00,
2013-10-12 14:35:00,76.5,50.0,30.11,ENE,74,4.0,8.0,40,0.00,,,0.00,weatherlink.com 1.10,2013-10-12 18:35:00,
2013-10-12 14:50:00,76.6,50.0,30.11,ENE,75,2.0,6.0,40,0.00,,,0.00,weatherlink.com 1.10,2013-10-12 18:50:00,
2013-10-12 15:05:00,76.7,51.0,30.11,NNE,23,6.0,9.0,41,0.00,,,0.00,weatherlink.com 1.10,2013-10-12 19:05:00,
2013-10-12 15:20:00,76.9,50.0,30.11,NNE,33,2.0,7.0,39,0.00,,,0.00,weatherlink.com 1.10,2013-10-12 19:20:00,
2013-10-12 15:35:00,77.0,47.0,30.11,NE,55,6.0,8.0,34,0.00,,,0.00,weatherlink.com 1.10,2013-10-12 19:35:00,
2013-10-12 15:50:00,77.4,45.0,30.10,North,356,2.0,8.0,32,0.00,,,0.00,weatherlink.com 1.10,2013-10-12 19:50:00,
2013-10-12 16:05:00,77.5,43.0,30.10,East,97,2.0,10.0,29,0.00,,,0.00,weatherlink.com 1.10,2013-10-12 20:05:00,
2013-10-12 16:20:00,77.7,42.0,30.10,ENE,77,1.0,6.0,28,0.00,,,0.00,weatherlink.com 1.10,2013-10-12 20:20:00,
2013-10-12 16:35:00,77.7,41.0,30.09,NNE,30,3.0,5.0,27,0.00,,,0.00,weatherlink.com 1.10,2013-10-12 20:35:00,
2013-10-12 16:50:00,77.7,42.0,30.09,East,84,3.0,5.0,28,0.00,,,0.00,weatherlink.com 1.10,2013-10-12 20:50:00,
2013-10-12 17:05:00,77.6,41.0,30.09,ENE,57,2.0,5.0,27,0.00,,,0.00,weatherlink.com 1.10,2013-10-12 21:05:00,
2013-10-12 17:20:00,77.4,42.0,30.09,ENE,59,2.0,6.0,28,0.00,,,0.00,weatherlink.com 1.10,2013-10-12 21:20:00,
2013-10-12 17:35:00,76.9,41.0,30.09,NNW,340,4.0,6.0,28,0.00,,,0.00,weatherlink.com 1.10,2013-10-12 21:35:00,
2013-10-12 17:50:00,76.2,39.0,30.08,NW,308,1.0,9.0,26,0.00,,,0.00,weatherlink.com 1.10,2013-10-12 21:50:00,
2013-10-12 18:05:00,75.5,40.0,30.09,ENE,74,1.0,5.0,28,0.00,,,0.00,weatherlink.com 1.10,2013-10-12 22:05:00,
2013-10-12 18:20:00,74.3,41.0,30.09,NE,49,1.0,4.0,30,0.00,,,0.00,weatherlink.com 1.10,2013-10-12 22:20:00,
2013-10-12 18:35:00,72.3,40.0,30.09,East,79,0.0,2.0,31,0.00,,,0.00,weatherlink.com 1.10,2013-10-12 22:35:00,
2013-10-12 18:50:00,71.3,39.0,30.09,ENE,74,1.0,3.0,31,0.00,,,0.00,weatherlink.com 1.10,2013-10-12 22:50:00,
2013-10-12 19:05:00,70.5,39.0,30.10,East,84,0.0,3.0,32,0.00,,,0.00,weatherlink.com 1.10,2013-10-12 23:05:00,
2013-10-12 19:20:00,69.3,40.0,30.10,East,83,2.0,2.0,35,0.00,,,0.00,weatherlink.com 1.10,2013-10-12 23:20:00,
2013-10-12 19:36:00,69.3,42.0,30.10,ENE,77,3.0,5.0,37,0.00,,,0.00,weatherlink.com 1.10,2013-10-12 23:36:00,
2013-10-12 19:51:00,68.6,43.0,30.10,East,84,3.0,4.0,40,0.00,,,0.00,weatherlink.com 1.10,2013-10-12 23:51:00,
2013-10-12 20:06:00,68.5,44.0,30.11,ENE,68,3.0,6.0,42,0.00,,,0.00,weatherlink.com 1.10,2013-10-13 00:06:00,
2013-10-12 20:20:00,68.4,45.0,30.11,East,82,3.0,6.0,43,0.00,,,0.00,weatherlink.com 1.10,2013-10-13 00:20:00,
2013-10-12 20:35:00,68.1,45.0,30.11,East,91,2.0,5.0,43,0.00,,,0.00,weatherlink.com 1.10,2013-10-13 00:35:00,
2013-10-12 20:50:00,67.6,44.0,30.12,ENE,76,2.0,4.0,43,0.00,,,0.00,weatherlink.com 1.10,2013-10-13 00:50:00,
2013-10-12 21:05:00,66.9,44.0,30.12,ESE,105,1.0,4.0,44,0.00,,,0.00,weatherlink.com 1.10,2013-10-13 01:05:00,
2013-10-12 21:20:00,66.2,43.0,30.12,East,85,4.0,4.0,44,0.00,,,0.00,weatherlink.com 1.10,2013-10-13 01:20:00,
2013-10-12 21:35:00,65.3,43.0,30.12,ESE,115,2.0,4.0,45,0.00,,,0.00,weatherlink.com 1.10,2013-10-13 01:35:00,
2013-10-12 21:50:00,65.4,42.0,30.13,East,94,4.0,5.0,43,0.00,,,0.00,weatherlink.com 1.10,2013-10-13 01:50:00,
2013-10-12 22:05:00,65.2,41.0,30.13,East,100,2.0,4.0,42,0.00,,,0.00,weatherlink.com 1.10,2013-10-13 02:05:00,
2013-10-12 22:20:00,65.0,41.0,30.13,ESE,119,2.0,4.0,41,0.00,,,0.00,weatherlink.com 1.10,2013-10-13 02:20:00,
2013-10-12 22:35:00,65.1,39.0,30.14,SE,139,2.0,7.0,39,0.00,,,0.00,weatherlink.com 1.10,2013-10-13 02:35:00,
2013-10-12 22:50:00,65.2,39.0,30.14,ESE,122,7.0,7.0,39,0.00,,,0.00,weatherlink.com 1.10,2013-10-13 02:50:00,
2013-10-12 23:05:00,65.3,40.0,30.13,SE,146,4.0,7.0,39,0.00,,,0.00,weatherlink.com 1.10,2013-10-13 03:05:00,
2013-10-12 23:20:00,65.5,39.0,30.13,SSE,150,2.0,10.0,38,0.00,,,0.00,weatherlink.com 1.10,2013-10-13 03:20:00,
2013-10-12 23:35:00,65.5,39.0,30.13,ESE,105,2.0,6.0,38,0.00,,,0.00,weatherlink.com 1.10,2013-10-13 03:35:00,
2013-10-12 23:50:00,65.8,39.0,30.13,SE,131,6.0,6.0,38,0.00,,,0.00,weatherlink.com 1.10,2013-10-13 03:50:00,